Year,Month,Day,Hour,Minute,Value (Times are PST for temperature in C)
2002,10,13,00,00,6.60
2002,10,13,00,01,6.60
2002,10,13,00,02,6.70
2002,10,13,00,03,6.70
2002,10,13,00,04,6.80
2002,10,13,00,05,6.80
2002,10,13,00,06,6.90
2002,10,13,00,07,6.90
2002,10,13,00,08,6.90
2002,10,13,00,09,6.90
2002,10,13,00,10,6.90
2002,10,13,00,11,6.90
2002,10,13,00,12,6.90
2002,10,13,00,13,6.90
2002,10,13,00,14,6.80
2002,10,13,00,15,6.80
2002,10,13,00,16,6.80
2002,10,13,00,17,6.80
2002,10,13,00,18,6.80
2002,10,13,00,19,6.80
2002,10,13,00,20,6.80
2002,10,13,00,21,6.70
2002,10,13,00,22,6.70
2002,10,13,00,23,6.70
2002,10,13,00,24,6.70
2002,10,13,00,25,6.60
2002,10,13,00,26,6.60
2002,10,13,00,27,6.60
2002,10,13,00,28,6.60
2002,10,13,00,29,6.60
2002,10,13,00,30,6.60
2002,10,13,00,31,6.60
2002,10,13,00,32,6.50
2002,10,13,00,33,6.40
2002,10,13,00,34,6.40
2002,10,13,00,35,6.40
2002,10,13,00,36,6.40
2002,10,13,00,37,6.40
2002,10,13,00,38,6.30
2002,10,13,00,39,6.30
2002,10,13,00,40,6.20
2002,10,13,00,41,6.20
2002,10,13,00,42,6.20
2002,10,13,00,43,6.20
2002,10,13,00,44,6.10
2002,10,13,00,45,6.00
2002,10,13,00,46,6.00
2002,10,13,00,47,5.90
2002,10,13,00,48,5.90
2002,10,13,00,49,5.90
2002,10,13,00,50,5.80
2002,10,13,00,51,5.80
2002,10,13,00,52,5.80
2002,10,13,00,53,5.80
2002,10,13,00,54,5.80
2002,10,13,00,55,5.70
2002,10,13,00,56,5.80
2002,10,13,00,57,5.80
2002,10,13,00,58,5.80
2002,10,13,00,59,5.80
2002,10,13,01,00,5.80
2002,10,13,01,01,5.80
2002,10,13,01,02,5.80
2002,10,13,01,03,5.70
2002,10,13,01,04,5.70
2002,10,13,01,05,5.80
2002,10,13,01,06,5.70
2002,10,13,01,07,5.70
2002,10,13,01,08,5.70
2002,10,13,01,09,5.70
2002,10,13,01,10,5.70
2002,10,13,01,11,5.80
2002,10,13,01,12,5.80
2002,10,13,01,13,5.80
2002,10,13,01,14,5.80
2002,10,13,01,15,5.80
2002,10,13,01,16,5.80
2002,10,13,01,17,5.70
2002,10,13,01,18,5.70
2002,10,13,01,19,5.70
2002,10,13,01,20,5.70
2002,10,13,01,21,5.70
2002,10,13,01,22,5.60
2002,10,13,01,23,5.60
2002,10,13,01,24,5.60
2002,10,13,01,25,5.50
2002,10,13,01,26,5.50
2002,10,13,01,27,5.50
2002,10,13,01,28,5.50
2002,10,13,01,29,5.40
2002,10,13,01,30,5.40
2002,10,13,01,31,5.30
2002,10,13,01,32,5.30
2002,10,13,01,33,5.30
2002,10,13,01,34,5.30
2002,10,13,01,35,5.30
2002,10,13,01,36,5.30
2002,10,13,01,37,5.30
2002,10,13,01,38,5.30
2002,10,13,01,39,5.30
2002,10,13,01,40,5.30
2002,10,13,01,41,5.30
2002,10,13,01,42,5.20
2002,10,13,01,43,5.20
2002,10,13,01,44,5.20
2002,10,13,01,45,5.20
2002,10,13,01,46,5.20
2002,10,13,01,47,5.20
2002,10,13,01,48,5.20
2002,10,13,01,49,5.20
2002,10,13,01,50,5.20
2002,10,13,01,51,5.20
2002,10,13,01,52,5.10
2002,10,13,01,53,5.10
2002,10,13,01,54,5.10
2002,10,13,01,55,5.10
2002,10,13,01,56,5.10
2002,10,13,01,57,5.10
2002,10,13,01,58,5.10
2002,10,13,01,59,5.10
2002,10,13,02,00,5.10
2002,10,13,02,01,5.10
2002,10,13,02,02,5.00
2002,10,13,02,03,5.00
2002,10,13,02,04,4.90
2002,10,13,02,05,4.90
2002,10,13,02,06,4.90
2002,10,13,02,07,4.90
2002,10,13,02,08,4.90
2002,10,13,02,09,4.90
2002,10,13,02,10,4.90
2002,10,13,02,11,4.80
2002,10,13,02,12,4.90
2002,10,13,02,13,4.90
2002,10,13,02,14,4.90
2002,10,13,02,15,4.90
2002,10,13,02,16,4.90
2002,10,13,02,17,4.90
2002,10,13,02,18,4.80
2002,10,13,02,19,4.80
2002,10,13,02,20,4.80
2002,10,13,02,21,4.80
2002,10,13,02,22,4.80
2002,10,13,02,23,4.90
2002,10,13,02,24,4.90
2002,10,13,02,25,4.90
2002,10,13,02,26,4.90
2002,10,13,02,27,4.90
2002,10,13,02,28,4.90
2002,10,13,02,29,4.90
2002,10,13,02,30,4.90
2002,10,13,02,31,5.10
2002,10,13,02,32,5.10
2002,10,13,02,33,5.10
2002,10,13,02,34,5.10
2002,10,13,02,35,5.10
2002,10,13,02,36,5.20
2002,10,13,02,37,5.20
2002,10,13,02,38,5.30
2002,10,13,02,39,5.30
2002,10,13,02,40,5.30
2002,10,13,02,41,5.40
2002,10,13,02,42,5.50
2002,10,13,02,43,5.60
2002,10,13,02,44,5.60
2002,10,13,02,45,5.70
2002,10,13,02,46,5.70
2002,10,13,02,47,5.70
2002,10,13,02,48,5.70
2002,10,13,02,49,5.70
2002,10,13,02,50,5.60
2002,10,13,02,51,5.60
2002,10,13,02,52,5.60
2002,10,13,02,53,5.60
2002,10,13,02,54,5.60
2002,10,13,02,55,5.60
2002,10,13,02,56,5.60
2002,10,13,02,57,5.60
2002,10,13,02,58,5.70
2002,10,13,02,59,5.70
2002,10,13,03,00,5.70
2002,10,13,03,01,5.70
2002,10,13,03,02,5.70
2002,10,13,03,03,5.70
2002,10,13,03,04,5.80
2002,10,13,03,05,5.80
2002,10,13,03,06,5.90
2002,10,13,03,07,6.00
2002,10,13,03,08,6.00
2002,10,13,03,09,6.10
2002,10,13,03,10,6.20
2002,10,13,03,11,6.20
2002,10,13,03,12,6.30
2002,10,13,03,13,6.30
2002,10,13,03,14,6.30
2002,10,13,03,15,6.30
2002,10,13,03,16,6.30
2002,10,13,03,17,6.30
2002,10,13,03,18,6.30
2002,10,13,03,19,6.40
2002,10,13,03,20,6.40
2002,10,13,03,21,6.40
2002,10,13,03,22,6.50
2002,10,13,03,23,6.60
2002,10,13,03,24,6.60
2002,10,13,03,25,6.60
2002,10,13,03,26,6.70
2002,10,13,03,27,6.80
2002,10,13,03,28,6.80
2002,10,13,03,29,6.80
2002,10,13,03,30,6.90
2002,10,13,03,31,7.00
2002,10,13,03,32,7.00
2002,10,13,03,33,7.00
2002,10,13,03,34,7.10
2002,10,13,03,35,7.10
2002,10,13,03,36,7.10
2002,10,13,03,37,7.10
2002,10,13,03,38,7.10
2002,10,13,03,39,7.10
2002,10,13,03,40,7.10
2002,10,13,03,41,7.10
2002,10,13,03,42,7.20
2002,10,13,03,43,7.20
2002,10,13,03,44,7.20
2002,10,13,03,45,7.30
2002,10,13,03,46,7.30
2002,10,13,03,47,7.30
2002,10,13,03,48,7.40
2002,10,13,03,49,7.40
2002,10,13,03,50,7.40
2002,10,13,03,51,7.40
2002,10,13,03,52,7.40
2002,10,13,03,53,7.50
2002,10,13,03,54,7.50
2002,10,13,03,55,7.50
2002,10,13,03,56,7.50
2002,10,13,03,57,7.50
2002,10,13,03,58,7.50
2002,10,13,03,59,7.50
2002,10,13,04,00,7.50
2002,10,13,04,01,7.40
2002,10,13,04,02,7.40
2002,10,13,04,03,7.40
2002,10,13,04,04,7.40
2002,10,13,04,05,7.30
2002,10,13,04,06,7.30
2002,10,13,04,07,7.30
2002,10,13,04,08,7.20
2002,10,13,04,09,7.20
2002,10,13,04,10,7.20
2002,10,13,04,11,7.10
2002,10,13,04,12,7.10
2002,10,13,04,13,7.00
2002,10,13,04,14,6.90
2002,10,13,04,15,6.90
2002,10,13,04,16,6.80
2002,10,13,04,17,6.80
2002,10,13,04,18,6.80
2002,10,13,04,19,6.80
2002,10,13,04,20,6.80
2002,10,13,04,21,6.80
2002,10,13,04,22,6.80
2002,10,13,04,23,6.90
2002,10,13,04,24,6.90
2002,10,13,04,25,6.90
2002,10,13,04,26,7.00
2002,10,13,04,27,7.00
2002,10,13,04,28,7.00
2002,10,13,04,29,7.10
2002,10,13,04,30,7.10
2002,10,13,04,31,7.20
2002,10,13,04,32,7.20
2002,10,13,04,33,7.30
2002,10,13,04,34,7.30
2002,10,13,04,35,7.20
2002,10,13,04,36,7.20
2002,10,13,04,37,7.20
2002,10,13,04,38,7.10
2002,10,13,04,39,7.10
2002,10,13,04,40,7.10
2002,10,13,04,41,7.10
2002,10,13,04,42,7.10
2002,10,13,04,43,7.10
2002,10,13,04,44,7.10
2002,10,13,04,45,7.10
2002,10,13,04,46,7.10
2002,10,13,04,47,7.20
2002,10,13,04,48,7.20
2002,10,13,04,49,7.20
2002,10,13,04,50,7.20
2002,10,13,04,51,7.20
2002,10,13,04,52,7.20
2002,10,13,04,53,7.20
2002,10,13,04,54,7.20
2002,10,13,04,55,7.20
2002,10,13,04,56,7.20
2002,10,13,04,57,7.20
2002,10,13,04,58,7.20
2002,10,13,04,59,7.20
2002,10,13,05,00,7.20
2002,10,13,05,01,7.10
2002,10,13,05,02,7.10
2002,10,13,05,03,7.10
2002,10,13,05,04,7.00
2002,10,13,05,05,7.00
2002,10,13,05,06,6.90
2002,10,13,05,07,6.90
2002,10,13,05,08,6.90
2002,10,13,05,09,6.90
2002,10,13,05,10,6.90
2002,10,13,05,11,6.90
2002,10,13,05,12,6.90
2002,10,13,05,13,6.90
2002,10,13,05,14,6.90
2002,10,13,05,15,6.90
2002,10,13,05,16,6.90
2002,10,13,05,17,6.90
2002,10,13,05,18,6.90
2002,10,13,05,19,6.90
2002,10,13,05,20,6.90
2002,10,13,05,21,6.90
2002,10,13,05,22,6.90
2002,10,13,05,23,6.90
2002,10,13,05,24,7.00
2002,10,13,05,25,7.00
2002,10,13,05,26,7.00
2002,10,13,05,27,7.10
2002,10,13,05,28,7.10
2002,10,13,05,29,7.10
2002,10,13,05,30,7.10
2002,10,13,05,31,7.10
2002,10,13,05,32,7.10
2002,10,13,05,33,7.00
2002,10,13,05,34,6.90
2002,10,13,05,35,6.90
2002,10,13,05,36,6.80
2002,10,13,05,37,6.80
2002,10,13,05,38,6.70
2002,10,13,05,39,6.60
2002,10,13,05,40,6.50
2002,10,13,05,41,6.40
2002,10,13,05,42,6.40
2002,10,13,05,43,6.30
2002,10,13,05,44,6.20
2002,10,13,05,45,6.20
2002,10,13,05,46,6.20
2002,10,13,05,47,6.20
2002,10,13,05,48,6.20
2002,10,13,05,49,6.30
2002,10,13,05,50,6.30
2002,10,13,05,51,6.40
2002,10,13,05,52,6.40
2002,10,13,05,53,6.40
2002,10,13,05,54,6.50
2002,10,13,05,55,6.60
2002,10,13,05,56,6.60
2002,10,13,05,57,6.60
2002,10,13,05,58,6.60
2002,10,13,05,59,6.60
2002,10,13,06,00,6.60
2002,10,13,06,01,6.60
2002,10,13,06,02,6.60
2002,10,13,06,03,6.60
2002,10,13,06,04,6.60
2002,10,13,06,05,6.60
2002,10,13,06,06,6.60
2002,10,13,06,07,6.60
2002,10,13,06,08,6.60
2002,10,13,06,09,6.50
2002,10,13,06,10,6.40
2002,10,13,06,11,6.40
2002,10,13,06,12,6.40
2002,10,13,06,13,6.40
2002,10,13,06,14,6.40
2002,10,13,06,15,6.40
2002,10,13,06,16,6.50
2002,10,13,06,17,6.60
2002,10,13,06,18,6.60
2002,10,13,06,19,6.60
2002,10,13,06,20,6.60
2002,10,13,06,21,6.60
2002,10,13,06,22,6.60
2002,10,13,06,23,6.60
2002,10,13,06,24,6.60
2002,10,13,06,25,6.70
2002,10,13,06,26,6.70
2002,10,13,06,27,6.70
2002,10,13,06,28,6.80
2002,10,13,06,29,6.80
2002,10,13,06,30,6.80
2002,10,13,06,31,6.80
2002,10,13,06,32,6.80
2002,10,13,06,33,6.80
2002,10,13,06,34,6.80
2002,10,13,06,35,6.80
2002,10,13,06,36,6.80
2002,10,13,06,37,6.70
2002,10,13,06,38,6.80
2002,10,13,06,39,6.70
2002,10,13,06,40,6.70
2002,10,13,06,41,6.70
2002,10,13,06,42,6.70
2002,10,13,06,43,6.70
2002,10,13,06,44,6.70
2002,10,13,06,45,6.70
2002,10,13,06,46,6.60
2002,10,13,06,47,6.60
2002,10,13,06,48,6.60
2002,10,13,06,49,6.60
2002,10,13,06,50,6.60
2002,10,13,06,51,6.60
2002,10,13,06,52,6.60
2002,10,13,06,53,6.60
2002,10,13,06,54,6.60
2002,10,13,06,55,6.60
2002,10,13,06,56,6.50
2002,10,13,06,57,6.40
2002,10,13,06,58,6.40
2002,10,13,06,59,6.40
2002,10,13,07,00,6.40
2002,10,13,07,01,6.30
2002,10,13,07,02,6.30
2002,10,13,07,03,6.30
2002,10,13,07,04,6.20
2002,10,13,07,05,6.20
2002,10,13,07,06,6.10
2002,10,13,07,07,6.10
2002,10,13,07,08,6.10
2002,10,13,07,09,6.10
2002,10,13,07,10,6.00
2002,10,13,07,11,6.00
2002,10,13,07,12,6.10
2002,10,13,07,13,6.10
2002,10,13,07,14,6.00
2002,10,13,07,15,6.10
2002,10,13,07,16,6.10
2002,10,13,07,17,6.10
2002,10,13,07,18,6.10
2002,10,13,07,19,6.10
2002,10,13,07,20,6.10
2002,10,13,07,21,6.10
2002,10,13,07,22,6.10
2002,10,13,07,23,6.10
2002,10,13,07,24,6.00
2002,10,13,07,25,6.00
2002,10,13,07,26,6.00
2002,10,13,07,27,6.00
2002,10,13,07,28,5.90
2002,10,13,07,29,5.90
2002,10,13,07,30,5.80
2002,10,13,07,31,5.80
2002,10,13,07,32,5.70
2002,10,13,07,33,5.70
2002,10,13,07,34,5.70
2002,10,13,07,35,5.70
2002,10,13,07,36,5.60
2002,10,13,07,37,5.60
2002,10,13,07,38,5.60
2002,10,13,07,39,5.50
2002,10,13,07,40,5.50
2002,10,13,07,41,5.40
2002,10,13,07,42,5.40
2002,10,13,07,43,5.40
2002,10,13,07,44,5.30
2002,10,13,07,45,5.30
2002,10,13,07,46,5.30
2002,10,13,07,47,5.30
2002,10,13,07,48,5.30
2002,10,13,07,49,5.30
2002,10,13,07,50,5.40
2002,10,13,07,51,5.40
2002,10,13,07,52,5.40
2002,10,13,07,53,5.40
2002,10,13,07,54,5.50
2002,10,13,07,55,5.50
2002,10,13,07,56,5.60
2002,10,13,07,57,5.70
2002,10,13,07,58,5.70
2002,10,13,07,59,5.70
2002,10,13,08,00,5.80
2002,10,13,08,01,5.90
2002,10,13,08,02,5.90
2002,10,13,08,03,6.00
2002,10,13,08,04,6.10
2002,10,13,08,05,6.10
2002,10,13,08,06,6.20
2002,10,13,08,07,6.20
2002,10,13,08,08,6.20
2002,10,13,08,09,6.30
2002,10,13,08,10,6.40
2002,10,13,08,11,6.40
2002,10,13,08,12,6.40
2002,10,13,08,13,6.40
2002,10,13,08,14,6.40
2002,10,13,08,15,6.30
2002,10,13,08,16,6.30
2002,10,13,08,17,6.20
2002,10,13,08,18,6.20
2002,10,13,08,19,6.20
2002,10,13,08,20,6.20
2002,10,13,08,21,6.20
2002,10,13,08,22,6.20
2002,10,13,08,23,6.20
2002,10,13,08,24,6.20
2002,10,13,08,25,6.20
2002,10,13,08,26,6.20
2002,10,13,08,27,6.20
2002,10,13,08,28,6.30
2002,10,13,08,29,6.40
2002,10,13,08,30,6.50
2002,10,13,08,31,6.70
2002,10,13,08,32,6.90
2002,10,13,08,33,7.10
2002,10,13,08,34,7.20
2002,10,13,08,35,7.30
2002,10,13,08,36,7.60
2002,10,13,08,37,7.70
2002,10,13,08,38,7.80
2002,10,13,08,39,7.90
2002,10,13,08,40,8.10
2002,10,13,08,41,8.20
2002,10,13,08,42,8.30
2002,10,13,08,43,8.40
2002,10,13,08,44,8.40
2002,10,13,08,45,8.40
2002,10,13,08,46,8.50
2002,10,13,08,47,8.50
2002,10,13,08,48,8.60
2002,10,13,08,49,8.60
2002,10,13,08,50,8.70
2002,10,13,08,51,8.70
2002,10,13,08,52,8.70
2002,10,13,08,53,8.70
2002,10,13,08,54,8.70
2002,10,13,08,55,8.60
2002,10,13,08,56,8.50
2002,10,13,08,57,8.50
2002,10,13,08,58,8.40
2002,10,13,08,59,8.40
2002,10,13,09,00,8.40
2002,10,13,09,01,8.40
2002,10,13,09,02,8.40
2002,10,13,09,03,8.40
2002,10,13,09,04,8.50
2002,10,13,09,05,8.50
2002,10,13,09,06,8.60
2002,10,13,09,07,8.60
2002,10,13,09,08,8.60
2002,10,13,09,09,8.70
2002,10,13,09,10,8.70
2002,10,13,09,11,8.70
2002,10,13,09,12,8.70
2002,10,13,09,13,8.70
2002,10,13,09,14,8.80
2002,10,13,09,15,8.90
2002,10,13,09,16,8.90
2002,10,13,09,17,8.90
2002,10,13,09,18,8.90
2002,10,13,09,19,8.90
2002,10,13,09,20,9.00
2002,10,13,09,21,9.00
2002,10,13,09,22,9.00
2002,10,13,09,23,9.10
2002,10,13,09,24,9.10
2002,10,13,09,25,9.10
2002,10,13,09,26,9.20
2002,10,13,09,27,9.20
2002,10,13,09,28,9.20
2002,10,13,09,29,9.20
2002,10,13,09,30,9.30
2002,10,13,09,31,9.30
2002,10,13,09,32,9.40
2002,10,13,09,33,9.40
2002,10,13,09,34,9.40
2002,10,13,09,35,9.50
2002,10,13,09,36,9.50
2002,10,13,09,37,9.60
2002,10,13,09,38,9.60
2002,10,13,09,39,9.60
2002,10,13,09,40,9.60
2002,10,13,09,41,9.60
2002,10,13,09,42,9.50
2002,10,13,09,43,9.60
2002,10,13,09,44,9.60
2002,10,13,09,45,9.60
2002,10,13,09,46,9.70
2002,10,13,09,47,9.70
2002,10,13,09,48,9.70
2002,10,13,09,49,9.70
2002,10,13,09,50,9.70
2002,10,13,09,51,9.70
2002,10,13,09,52,9.70
2002,10,13,09,53,9.70
2002,10,13,09,54,9.70
2002,10,13,09,55,9.80
2002,10,13,09,56,9.80
2002,10,13,09,57,9.80
2002,10,13,09,58,9.80
2002,10,13,09,59,9.80
2002,10,13,10,00,9.80
2002,10,13,10,01,9.80
2002,10,13,10,02,9.90
2002,10,13,10,03,9.90
2002,10,13,10,04,9.90
2002,10,13,10,05,9.90
2002,10,13,10,06,9.90
2002,10,13,10,07,10.00
2002,10,13,10,08,10.10
2002,10,13,10,09,10.10
2002,10,13,10,10,10.10
2002,10,13,10,11,10.10
2002,10,13,10,12,10.10
2002,10,13,10,13,10.10
2002,10,13,10,14,10.10
2002,10,13,10,15,10.20
2002,10,13,10,16,10.10
2002,10,13,10,17,10.20
2002,10,13,10,18,10.10
2002,10,13,10,19,10.10
2002,10,13,10,20,10.10
2002,10,13,10,21,10.10
2002,10,13,10,22,10.10
2002,10,13,10,23,10.10
2002,10,13,10,24,10.10
2002,10,13,10,25,10.00
2002,10,13,10,26,10.00
2002,10,13,10,27,10.00
2002,10,13,10,28,10.10
2002,10,13,10,29,10.10
2002,10,13,10,30,10.10
2002,10,13,10,31,10.10
2002,10,13,10,32,10.10
2002,10,13,10,33,10.10
2002,10,13,10,34,10.10
2002,10,13,10,35,10.10
2002,10,13,10,36,10.10
2002,10,13,10,37,10.10
2002,10,13,10,38,10.10
2002,10,13,10,39,10.10
2002,10,13,10,40,10.20
2002,10,13,10,41,10.20
2002,10,13,10,42,10.30
2002,10,13,10,43,10.30
2002,10,13,10,44,10.30
2002,10,13,10,45,10.40
2002,10,13,10,46,10.40
2002,10,13,10,47,10.40
2002,10,13,10,48,10.50
2002,10,13,10,49,10.60
2002,10,13,10,50,10.60
2002,10,13,10,51,10.70
2002,10,13,10,52,10.70
2002,10,13,10,53,10.70
2002,10,13,10,54,10.70
2002,10,13,10,55,10.80
2002,10,13,10,56,10.90
2002,10,13,10,57,10.90
2002,10,13,10,58,10.90
2002,10,13,10,59,10.90
2002,10,13,11,00,11.00
2002,10,13,11,01,11.10
2002,10,13,11,02,11.10
2002,10,13,11,03,11.10
2002,10,13,11,04,11.10
2002,10,13,11,05,11.10
2002,10,13,11,06,11.00
2002,10,13,11,07,11.10
2002,10,13,11,08,11.10
2002,10,13,11,09,11.10
2002,10,13,11,10,11.10
2002,10,13,11,11,11.20
2002,10,13,11,12,11.20
2002,10,13,11,13,11.30
2002,10,13,11,14,11.30
2002,10,13,11,15,11.20
2002,10,13,11,16,11.10
2002,10,13,11,17,11.10
2002,10,13,11,18,11.10
2002,10,13,11,19,11.10
2002,10,13,11,20,11.20
2002,10,13,11,21,11.20
2002,10,13,11,22,11.20
2002,10,13,11,23,11.20
2002,10,13,11,24,11.20
2002,10,13,11,25,11.20
2002,10,13,11,26,11.30
2002,10,13,11,27,11.40
2002,10,13,11,28,11.40
2002,10,13,11,29,11.40
2002,10,13,11,30,11.40
2002,10,13,11,31,11.40
2002,10,13,11,32,11.60
2002,10,13,11,33,11.60
2002,10,13,11,34,11.60
2002,10,13,11,35,11.60
2002,10,13,11,36,11.60
2002,10,13,11,37,11.60
2002,10,13,11,38,11.60
2002,10,13,11,39,11.60
2002,10,13,11,40,11.70
2002,10,13,11,41,11.70
2002,10,13,11,42,11.70
2002,10,13,11,43,11.70
2002,10,13,11,44,11.60
2002,10,13,11,45,11.60
2002,10,13,11,46,11.60
2002,10,13,11,47,11.60
2002,10,13,11,48,11.60
2002,10,13,11,49,11.70
2002,10,13,11,50,11.70
2002,10,13,11,51,11.60
2002,10,13,11,52,11.60
2002,10,13,11,53,11.60
2002,10,13,11,54,11.60
2002,10,13,11,55,11.80
2002,10,13,11,56,11.80
2002,10,13,11,57,11.80
2002,10,13,11,58,11.80
2002,10,13,11,59,11.90
2002,10,13,12,00,11.90
2002,10,13,12,01,11.80
2002,10,13,12,02,11.80
2002,10,13,12,03,11.90
2002,10,13,12,04,12.00
2002,10,13,12,05,12.00
2002,10,13,12,06,11.90
2002,10,13,12,07,11.80
2002,10,13,12,08,11.80
2002,10,13,12,09,11.80
2002,10,13,12,10,11.80
2002,10,13,12,11,11.70
2002,10,13,12,12,11.50
2002,10,13,12,13,11.40
2002,10,13,12,14,11.50
2002,10,13,12,15,11.60
2002,10,13,12,16,11.60
2002,10,13,12,17,11.60
2002,10,13,12,18,11.70
2002,10,13,12,19,11.80
2002,10,13,12,20,11.90
2002,10,13,12,21,12.00
2002,10,13,12,22,12.10
2002,10,13,12,23,12.10
2002,10,13,12,24,12.20
2002,10,13,12,25,12.20
2002,10,13,12,26,12.30
2002,10,13,12,27,12.30
2002,10,13,12,28,12.30
2002,10,13,12,29,12.40
2002,10,13,12,30,12.40
2002,10,13,12,31,12.40
2002,10,13,12,32,12.50
2002,10,13,12,33,12.50
2002,10,13,12,34,12.40
2002,10,13,12,35,12.50
2002,10,13,12,36,12.60
2002,10,13,12,37,12.50
2002,10,13,12,38,12.50
2002,10,13,12,39,12.50
2002,10,13,12,40,12.50
2002,10,13,12,41,12.50
2002,10,13,12,42,12.60
2002,10,13,12,43,12.60
2002,10,13,12,44,12.60
2002,10,13,12,45,12.70
2002,10,13,12,46,12.80
2002,10,13,12,47,12.80
2002,10,13,12,48,12.80
2002,10,13,12,49,12.80
2002,10,13,12,50,12.70
2002,10,13,12,51,12.70
2002,10,13,12,52,12.80
2002,10,13,12,53,12.70
2002,10,13,12,54,12.50
2002,10,13,12,55,12.40
2002,10,13,12,56,12.40
2002,10,13,12,57,12.40
2002,10,13,12,58,12.50
2002,10,13,12,59,12.60
2002,10,13,13,00,12.70
2002,10,13,13,01,12.80
2002,10,13,13,02,13.00
2002,10,13,13,03,13.10
2002,10,13,13,04,13.20
2002,10,13,13,05,13.30
2002,10,13,13,06,13.30
2002,10,13,13,07,13.40
2002,10,13,13,08,13.40
2002,10,13,13,09,13.40
2002,10,13,13,10,13.40
2002,10,13,13,11,13.40
2002,10,13,13,12,13.40
2002,10,13,13,13,13.40
2002,10,13,13,14,13.40
2002,10,13,13,15,13.40
2002,10,13,13,16,13.40
2002,10,13,13,17,13.40
2002,10,13,13,18,13.50
2002,10,13,13,19,13.50
2002,10,13,13,20,13.60
2002,10,13,13,21,13.60
2002,10,13,13,22,13.70
2002,10,13,13,23,13.70
2002,10,13,13,24,13.60
2002,10,13,13,25,13.60
2002,10,13,13,26,13.50
2002,10,13,13,27,13.50
2002,10,13,13,28,13.50
2002,10,13,13,29,13.50
2002,10,13,13,30,13.30
2002,10,13,13,31,13.30
2002,10,13,13,32,13.40
2002,10,13,13,33,13.40
2002,10,13,13,34,13.50
2002,10,13,13,35,13.60
2002,10,13,13,36,13.60
2002,10,13,13,37,13.60
2002,10,13,13,38,13.50
2002,10,13,13,39,13.40
2002,10,13,13,40,13.40
2002,10,13,13,41,13.40
2002,10,13,13,42,13.40
2002,10,13,13,43,13.50
2002,10,13,13,44,13.50
2002,10,13,13,45,13.30
2002,10,13,13,46,13.20
2002,10,13,13,47,13.10
2002,10,13,13,48,13.10
2002,10,13,13,49,13.00
2002,10,13,13,50,13.00
2002,10,13,13,51,13.10
2002,10,13,13,52,13.00
2002,10,13,13,53,13.00
2002,10,13,13,54,13.00
2002,10,13,13,55,13.10
2002,10,13,13,56,13.20
2002,10,13,13,57,13.20
2002,10,13,13,58,13.30
2002,10,13,13,59,13.30
2002,10,13,14,00,13.50
2002,10,13,14,01,13.60
2002,10,13,14,02,13.60
2002,10,13,14,03,13.60
2002,10,13,14,04,13.60
2002,10,13,14,05,13.70
2002,10,13,14,06,13.80
2002,10,13,14,07,13.90
2002,10,13,14,08,14.10
2002,10,13,14,09,14.10
2002,10,13,14,10,14.00
2002,10,13,14,11,13.80
2002,10,13,14,12,13.70
2002,10,13,14,13,13.60
2002,10,13,14,14,13.60
2002,10,13,14,15,13.60
2002,10,13,14,16,13.60
2002,10,13,14,17,13.50
2002,10,13,14,18,13.40
2002,10,13,14,19,13.30
2002,10,13,14,20,13.30
2002,10,13,14,21,13.30
2002,10,13,14,22,13.20
2002,10,13,14,23,13.10
2002,10,13,14,24,13.00
2002,10,13,14,25,12.90
2002,10,13,14,26,12.80
2002,10,13,14,27,12.70
2002,10,13,14,28,12.70
2002,10,13,14,29,12.60
2002,10,13,14,30,12.60
2002,10,13,14,31,12.50
2002,10,13,14,32,12.50
2002,10,13,14,33,12.50
2002,10,13,14,34,12.50
2002,10,13,14,35,12.60
2002,10,13,14,36,12.60
2002,10,13,14,37,12.60
2002,10,13,14,38,12.80
2002,10,13,14,39,12.90
2002,10,13,14,40,13.00
2002,10,13,14,41,13.20
2002,10,13,14,42,13.40
2002,10,13,14,43,13.40
2002,10,13,14,44,13.30
2002,10,13,14,45,13.30
2002,10,13,14,46,13.40
2002,10,13,14,47,13.30
2002,10,13,14,48,13.30
2002,10,13,14,49,13.20
2002,10,13,14,50,13.10
2002,10,13,14,51,13.10
2002,10,13,14,52,13.20
2002,10,13,14,53,13.30
2002,10,13,14,54,13.30
2002,10,13,14,55,13.30
2002,10,13,14,56,13.20
2002,10,13,14,57,13.20
2002,10,13,14,58,13.20
2002,10,13,14,59,13.20
2002,10,13,15,00,13.20
2002,10,13,15,01,13.20
2002,10,13,15,02,13.10
2002,10,13,15,03,13.10
2002,10,13,15,04,13.10
2002,10,13,15,05,13.20
2002,10,13,15,06,13.30
2002,10,13,15,07,13.30
2002,10,13,15,08,13.30
2002,10,13,15,09,13.30
2002,10,13,15,10,13.30
2002,10,13,15,11,13.30
2002,10,13,15,12,13.40
2002,10,13,15,13,13.40
2002,10,13,15,14,13.40
2002,10,13,15,15,13.30
2002,10,13,15,16,13.30
2002,10,13,15,17,13.30
2002,10,13,15,18,13.30
2002,10,13,15,19,13.30
2002,10,13,15,20,13.30
2002,10,13,15,21,13.30
2002,10,13,15,22,13.30
2002,10,13,15,23,13.40
2002,10,13,15,24,13.40
2002,10,13,15,25,13.40
2002,10,13,15,26,13.30
2002,10,13,15,27,13.40
2002,10,13,15,28,13.50
2002,10,13,15,29,13.50
2002,10,13,15,30,13.50
2002,10,13,15,31,13.50
2002,10,13,15,32,13.50
2002,10,13,15,33,13.60
2002,10,13,15,34,13.70
2002,10,13,15,35,13.70
2002,10,13,15,36,13.70
2002,10,13,15,37,13.60
2002,10,13,15,38,13.60
2002,10,13,15,39,13.60
2002,10,13,15,40,13.50
2002,10,13,15,41,13.40
2002,10,13,15,42,13.40
2002,10,13,15,43,13.30
2002,10,13,15,44,13.40
2002,10,13,15,45,13.40
2002,10,13,15,46,13.40
2002,10,13,15,47,13.50
2002,10,13,15,48,13.60
2002,10,13,15,49,13.70
2002,10,13,15,50,13.80
2002,10,13,15,51,13.80
2002,10,13,15,52,13.80
2002,10,13,15,53,13.80
2002,10,13,15,54,13.80
2002,10,13,15,55,13.70
2002,10,13,15,56,13.70
2002,10,13,15,57,13.70
2002,10,13,15,58,13.70
2002,10,13,15,59,13.70
2002,10,13,16,00,13.60
2002,10,13,16,01,13.60
2002,10,13,16,02,13.50
2002,10,13,16,03,13.40
2002,10,13,16,04,13.30
2002,10,13,16,05,13.30
2002,10,13,16,06,13.30
2002,10,13,16,07,13.30
2002,10,13,16,08,13.30
2002,10,13,16,09,13.30
2002,10,13,16,10,13.30
2002,10,13,16,11,13.30
2002,10,13,16,12,13.30
2002,10,13,16,13,13.30
2002,10,13,16,14,13.40
2002,10,13,16,15,13.40
2002,10,13,16,16,13.40
2002,10,13,16,17,13.40
2002,10,13,16,18,13.40
2002,10,13,16,19,13.30
2002,10,13,16,20,13.30
2002,10,13,16,21,13.40
2002,10,13,16,22,13.40
2002,10,13,16,23,13.40
2002,10,13,16,24,13.40
2002,10,13,16,25,13.50
2002,10,13,16,26,13.50
2002,10,13,16,27,13.60
2002,10,13,16,28,13.60
2002,10,13,16,29,13.60
2002,10,13,16,30,13.70
2002,10,13,16,31,13.60
2002,10,13,16,32,13.60
2002,10,13,16,33,13.60
2002,10,13,16,34,13.60
2002,10,13,16,35,13.60
2002,10,13,16,36,13.60
2002,10,13,16,37,13.60
2002,10,13,16,38,13.70
2002,10,13,16,39,13.70
2002,10,13,16,40,13.70
2002,10,13,16,41,13.70
2002,10,13,16,42,13.70
2002,10,13,16,43,13.70
2002,10,13,16,44,13.70
2002,10,13,16,45,13.70
2002,10,13,16,46,13.70
2002,10,13,16,47,13.70
2002,10,13,16,48,13.70
2002,10,13,16,49,13.70
2002,10,13,16,50,13.80
2002,10,13,16,51,13.90
2002,10,13,16,52,13.90
2002,10,13,16,53,13.90
2002,10,13,16,54,13.90
2002,10,13,16,55,13.90
2002,10,13,16,56,13.90
2002,10,13,16,57,14.00
2002,10,13,16,58,14.10
2002,10,13,16,59,14.30
2002,10,13,17,00,14.40
2002,10,13,17,01,14.30
2002,10,13,17,02,14.30
2002,10,13,17,03,14.40
2002,10,13,17,04,14.40
2002,10,13,17,05,14.40
2002,10,13,17,06,14.40
2002,10,13,17,07,14.40
2002,10,13,17,08,14.40
2002,10,13,17,09,14.40
2002,10,13,17,10,14.50
2002,10,13,17,11,14.40
2002,10,13,17,12,14.50
2002,10,13,17,13,14.50
2002,10,13,17,14,14.50
2002,10,13,17,15,14.50
2002,10,13,17,16,14.60
2002,10,13,17,17,14.60
2002,10,13,17,18,14.60
2002,10,13,17,19,14.60
2002,10,13,17,20,14.70
2002,10,13,17,21,14.70
2002,10,13,17,22,14.70
2002,10,13,17,23,14.70
2002,10,13,17,24,14.70
2002,10,13,17,25,14.70
2002,10,13,17,26,14.70
2002,10,13,17,27,14.70
2002,10,13,17,28,14.70
2002,10,13,17,29,14.80
2002,10,13,17,30,14.80
2002,10,13,17,31,14.70
2002,10,13,17,32,14.70
2002,10,13,17,33,14.60
2002,10,13,17,34,14.50
2002,10,13,17,35,14.50
2002,10,13,17,36,14.50
2002,10,13,17,37,14.50
2002,10,13,17,38,14.50
2002,10,13,17,39,14.40
2002,10,13,17,40,14.40
2002,10,13,17,41,14.20
2002,10,13,17,42,14.20
2002,10,13,17,43,14.20
2002,10,13,17,44,14.10
2002,10,13,17,45,14.00